Location: 22
(39.7117°N, 89.5929°W)
Time: 23:13:20
(UTC-05:00)

Altair - Visible Passes

Search period start: 05 June 2026 00:00
Search period end: 15 June 2026 00:00
Orbit: 1501 x 1682 km, 47.2° (Epoch: 5 June)

Date Brightness Start Highest point End Pass type
(mag) Time Alt. Az. Time Alt. Az. Time Alt. Az.
5 Jun 7.6 01:04:51 10° WSW 01:14:18 75° NNW 01:24:12 10° ENE visible
5 Jun 8.2 03:10:43 10° WNW 03:20:11 56° N 03:30:01 10° ENE visible
5 Jun 7.7 22:36:12 10° SSW 22:44:44 43° SE 22:53:33 10° ENE visible
6 Jun 7.5 00:39:35 10° WSW 00:49:01 79° NNW 00:58:53 10° ENE visible
6 Jun 8.2 02:45:24 10° WNW 02:54:49 56° N 03:04:37 10° ENE visible
6 Jun 7.9 04:50:54 10° WNW 05:00:45 75° NNE 05:10:54 10° ESE visible
6 Jun 7.8 22:11:16 10° SSW 22:19:36 39° SE 22:28:11 10° ENE visible
7 Jun 7.5 00:14:20 10° WSW 00:23:44 82° NNW 00:33:35 10° ENE visible
7 Jun 8.2 02:20:04 10° W 02:29:27 56° N 02:39:13 10° ENE visible
7 Jun 8.0 04:25:38 10° WNW 04:35:26 72° NNE 04:45:32 10° ESE visible
7 Jun 7.9 21:46:22 10° SSW 21:54:27 36° SE 22:02:47 10° ENE visible
7 Jun 7.4 23:49:05 10° WSW 23:58:29 86° NNW 00:08:17 10° ENE visible
8 Jun 8.1 01:54:45 10° W 02:04:06 56° N 02:13:50 10° ENE visible
8 Jun 8.0 04:00:21 10° WNW 04:10:06 69° NNE 04:20:10 10° ESE visible
8 Jun 8.0 21:21:30 10° S 21:29:20 32° SE 21:37:23 10° ENE visible
8 Jun 7.4 23:23:53 10° WSW 23:33:13 90° SSE 23:42:59 10° ENE visible
9 Jun 8.1 01:29:25 10° W 01:38:45 57° N 01:48:27 10° ENE visible
9 Jun 8.0 03:35:05 10° WNW 03:44:46 67° NNE 03:54:47 10° E visible
9 Jun 8.1 20:56:41 10° S 21:04:13 29° SE 21:11:56 10° ENE visible
9 Jun 7.4 22:58:41 10° SW 23:07:59 85° SSE 23:17:41 10° ENE visible
10 Jun 8.1 01:04:05 10° W 01:13:24 57° N 01:23:05 10° ENE visible
10 Jun 8.0 03:09:49 10° WNW 03:19:26 64° NNE 03:29:24 10° E visible
10 Jun 7.4 22:33:29 10° SW 22:42:45 81° SSE 22:52:23 10° ENE visible
11 Jun 8.0 00:38:46 10° W 00:48:03 58° N 00:57:43 10° ENE visible
11 Jun 8.0 02:44:32 10° WNW 02:54:06 62° NNE 03:04:00 10° E visible
11 Jun 7.6 04:49:31 10° WNW 04:59:15 71° SW 05:09:16 10° SE visible
11 Jun 7.4 22:08:19 10° SW 22:17:32 76° SE 22:27:05 10° ENE visible
12 Jun 8.0 00:13:27 10° W 00:22:43 60° NNW 00:32:22 10° ENE visible
12 Jun 8.0 02:19:16 10° WNW 02:28:45 61° NNE 02:38:36 10° E visible
12 Jun 7.6 04:24:16 10° WNW 04:34:00 75° SW 04:44:03 10° SE visible
12 Jun 7.4 21:43:10 10° SW 21:52:19 71° SE 22:01:48 10° ENE visible
12 Jun 7.9 23:48:08 10° W 23:57:23 61° NNW 00:07:01 10° ENE visible
13 Jun 8.1 01:53:59 10° WNW 02:03:24 59° NNE 02:13:12 10° E visible
13 Jun 7.6 03:59:00 10° WNW 04:08:45 79° SW 04:18:49 10° SE visible
13 Jun 7.4 21:18:03 10° SW 21:27:08 67° SE 21:36:30 10° ENE visible
13 Jun 7.9 23:22:50 10° W 23:32:04 63° NNW 23:41:41 10° ENE visible
14 Jun 8.1 01:28:42 10° WNW 01:38:04 58° N 01:47:48 10° E visible
14 Jun 7.5 03:33:46 10° WNW 03:43:30 84° SSW 03:53:33 10° SE visible
14 Jun 7.5 20:52:56 10° SW 21:01:56 62° SE 21:11:12 10° ENE visible
14 Jun 7.9 22:57:31 10° W 23:06:45 65° NNW 23:16:21 10° ENE visible
